Location: Azul
(36.7830°S, 59.8500°W)
Time: 02:04:24
(UTC-03:00)

CAS-4A - Pass Details

Date: 25 October 2021
Orbit: 529 x 539 km, 43.0° (Epoch: 04 December)

Event Time Altitude Azimuth Distance (km) Brightness Sun altitude
Exits shadow 03:17:26 32° 133° (SE) 936 ? -29.1°
Drops below altitude 10° 03:19:49 10° 119° (ESE) 1,794 ? -28.8°
Sets 03:22:05 0° 115° (ESE) 2,687 ? -28.4°
